Time,TemperatureF,DewpointF,PressureIn,WindDirection,WindDirectionDegrees,WindSpeedMPH,WindSpeedGustMPH,Humidity,HourlyPrecipIn,Conditions,Clouds,dailyrainin,SoftwareType,DateUTC
2013-07-21 00:02:00,71.0,61.0,-100.00,ENE,65,3.0,5.0,70,0.00,,,-99.99,,2013-07-21 05:02:00,
2013-07-21 00:11:00,71.0,62.0,-100.00,East,100,4.0,4.0,71,0.00,,,-99.99,,2013-07-21 05:11:00,
2013-07-21 00:22:00,71.0,62.0,-100.00,East,100,4.0,4.0,71,0.00,,,-99.99,,2013-07-21 05:22:00,
2013-07-21 00:32:00,71.0,62.0,-100.00,SE,125,0.0,2.0,71,0.00,,,-99.99,,2013-07-21 05:32:00,
2013-07-21 00:42:00,72.0,62.0,-100.00,East,80,1.0,1.0,71,0.00,,,-99.99,,2013-07-21 05:42:00,
2013-07-21 00:52:00,72.0,62.0,-100.00,ESE,110,2.0,3.0,71,0.00,,,-99.99,,2013-07-21 05:52:00,
2013-07-21 01:01:00,71.0,62.0,-100.00,NE,55,2.0,3.0,72,0.00,,,-99.99,,2013-07-21 06:01:00,
2013-07-21 01:11:00,72.0,62.0,-100.00,NE,45,1.0,2.0,72,0.00,,,-99.99,,2013-07-21 06:11:00,
2013-07-21 01:22:00,72.0,62.0,-100.00,ENE,65,1.0,1.0,71,0.00,,,-99.99,,2013-07-21 06:22:00,
2013-07-21 01:32:00,71.0,62.0,-100.00,ESE,105,1.0,2.0,71,0.00,,,-99.99,,2013-07-21 06:32:00,
2013-07-21 01:42:00,71.0,62.0,-100.00,ENE,65,1.0,2.0,72,0.00,,,-99.99,,2013-07-21 06:42:00,
2013-07-21 01:52:00,71.0,62.0,-100.00,ENE,65,1.0,2.0,73,0.00,,,-99.99,,2013-07-21 06:52:00,
2013-07-21 02:01:00,71.0,62.0,-100.00,NNE,25,2.0,3.0,74,0.00,,,-99.99,,2013-07-21 07:01:00,
2013-07-21 02:11:00,71.0,62.0,-100.00,NNE,25,2.0,3.0,74,0.00,,,-99.99,,2013-07-21 07:11:00,
2013-07-21 02:22:00,70.0,63.0,-100.00,East,90,4.0,4.0,77,0.00,,,-99.99,,2013-07-21 07:22:00,
2013-07-21 02:32:00,70.0,63.0,-100.00,East,95,4.0,4.0,78,0.00,,,-99.99,,2013-07-21 07:32:00,
2013-07-21 02:43:00,70.0,63.0,-100.00,ESE,105,4.0,4.0,78,0.00,,,-99.99,,2013-07-21 07:43:00,
2013-07-21 03:01:00,70.0,63.0,-100.00,East,90,2.0,3.0,77,0.00,,,-99.99,,2013-07-21 08:01:00,
2013-07-21 03:11:00,70.0,62.0,-100.00,East,80,1.0,2.0,77,0.00,,,-99.99,,2013-07-21 08:11:00,
2013-07-21 03:22:00,70.0,63.0,-100.00,ENE,75,1.0,2.0,78,0.00,,,-99.99,,2013-07-21 08:22:00,
2013-07-21 03:33:00,69.0,62.0,-100.00,ENE,75,2.0,2.0,78,0.00,,,-99.99,,2013-07-21 08:33:00,
2013-07-21 03:43:00,69.0,62.0,-100.00,East,90,1.0,2.0,80,0.00,,,-99.99,,2013-07-21 08:43:00,
2013-07-21 04:02:00,68.0,63.0,-100.00,East,85,4.0,4.0,82,0.00,,,-99.99,,2013-07-21 09:02:00,
2013-07-21 04:12:00,68.0,63.0,-100.00,ESE,120,4.0,5.0,83,0.00,,,-99.99,,2013-07-21 09:12:00,
2013-07-21 04:22:00,68.0,63.0,-100.00,ESE,110,4.0,6.0,83,0.00,,,-99.99,,2013-07-21 09:22:00,
2013-07-21 04:32:00,68.0,63.0,-100.00,East,90,3.0,4.0,83,0.00,,,-99.99,,2013-07-21 09:32:00,
2013-07-21 04:42:00,67.0,62.0,-100.00,East,95,4.0,4.0,84,0.00,,,-99.99,,2013-07-21 09:42:00,
2013-07-21 05:02:00,67.0,62.0,-100.00,East,100,2.0,4.0,85,0.00,,,-99.99,,2013-07-21 10:02:00,
2013-07-21 05:11:00,67.0,62.0,-100.00,ESE,110,4.0,4.0,85,0.00,,,-99.99,,2013-07-21 10:11:00,
2013-07-21 05:22:00,67.0,63.0,-100.00,ESE,110,5.0,6.0,86,0.00,,,-99.99,,2013-07-21 10:22:00,
2013-07-21 05:32:00,67.0,63.0,-100.00,ESE,115,4.0,6.0,86,0.00,,,-99.99,,2013-07-21 10:32:00,
2013-07-21 05:43:00,67.0,63.0,-100.00,ESE,110,2.0,4.0,86,0.00,,,-99.99,,2013-07-21 10:43:00,
2013-07-21 05:52:00,66.0,62.0,-100.00,ENE,75,2.0,4.0,86,0.00,,,-99.99,,2013-07-21 10:52:00,
2013-07-21 06:02:00,66.0,62.0,-100.00,ESE,105,2.0,3.0,86,0.00,,,-99.99,,2013-07-21 11:02:00,
2013-07-21 06:12:00,67.0,62.0,-100.00,SSE,160,2.0,4.0,86,0.00,,,-99.99,,2013-07-21 11:12:00,
2013-07-21 06:22:00,67.0,63.0,-100.00,South,175,2.0,3.0,86,0.00,,,-99.99,,2013-07-21 11:22:00,
2013-07-21 06:33:00,67.0,63.0,-100.00,South,180,0.0,2.0,86,0.00,,,-99.99,,2013-07-21 11:33:00,
2013-07-21 06:43:00,67.0,62.0,-100.00,NNE,30,1.0,1.0,86,0.00,,,-99.99,,2013-07-21 11:43:00,
2013-07-21 07:01:00,67.0,63.0,-100.00,NE,45,1.0,2.0,86,0.00,,,-99.99,,2013-07-21 12:01:00,
2013-07-21 07:11:00,67.0,63.0,-100.00,NE,50,2.0,2.0,86,0.00,,,-99.99,,2013-07-21 12:11:00,
2013-07-21 07:22:00,68.0,64.0,-100.00,East,85,2.0,3.0,86,0.00,,,-99.99,,2013-07-21 12:22:00,
2013-07-21 07:32:00,69.0,65.0,-100.00,East,100,2.0,3.0,86,0.00,,,-99.99,,2013-07-21 12:32:00,
2013-07-21 07:43:00,70.0,65.0,-100.00,ESE,105,3.0,4.0,84,0.00,,,-99.99,,2013-07-21 12:43:00,
2013-07-21 07:53:00,70.0,65.0,-100.00,East,100,4.0,6.0,82,0.00,,,-99.99,,2013-07-21 12:53:00,
2013-07-21 08:01:00,70.0,64.0,-100.00,East,100,4.0,6.0,81,0.00,,,-99.99,,2013-07-21 13:01:00,
2013-07-21 08:12:00,71.0,64.0,-100.00,East,90,3.0,6.0,79,0.00,,,-99.99,,2013-07-21 13:12:00,
2013-07-21 08:22:00,72.0,64.0,-100.00,East,95,2.0,4.0,77,0.00,,,-99.99,,2013-07-21 13:22:00,
2013-07-21 08:32:00,72.0,64.0,-100.00,ESE,110,2.0,4.0,76,0.00,,,-99.99,,2013-07-21 13:32:00,
2013-07-21 08:42:00,73.0,64.0,-100.00,SE,130,4.0,5.0,74,0.00,,,-99.99,,2013-07-21 13:42:00,
2013-07-21 08:52:00,73.0,64.0,-100.00,SE,145,4.0,7.0,73,0.00,,,-99.99,,2013-07-21 13:52:00,
2013-07-21 09:12:00,74.0,64.0,-100.00,South,185,4.0,6.0,71,0.00,,,-99.99,,2013-07-21 14:12:00,
2013-07-21 09:22:00,74.0,64.0,-100.00,SSE,165,3.0,5.0,71,0.00,,,-99.99,,2013-07-21 14:22:00,
2013-07-21 09:32:00,74.0,64.0,-100.00,SW,220,2.0,6.0,70,0.00,,,-99.99,,2013-07-21 14:32:00,
2013-07-21 09:43:00,75.0,65.0,-100.00,West,265,2.0,4.0,69,0.00,,,-99.99,,2013-07-21 14:43:00,
2013-07-21 09:53:00,76.0,65.0,-100.00,NW,315,1.0,3.0,68,0.00,,,-99.99,,2013-07-21 14:53:00,
2013-07-21 10:02:00,76.0,65.0,-100.00,WSW,240,1.0,3.0,67,0.00,,,-99.99,,2013-07-21 15:02:00,
2013-07-21 10:11:00,76.0,64.0,-100.00,ESE,115,0.0,3.0,65,0.04,,,-99.99,,2013-07-21 15:11:00,
2013-07-21 10:22:00,75.0,63.0,-100.00,NE,35,0.0,1.0,65,0.13,,,-99.99,,2013-07-21 15:22:00,
2013-07-21 10:32:00,75.0,64.0,-100.00,ENE,60,5.0,6.0,70,0.00,,,-99.99,,2013-07-21 15:32:00,
2013-07-21 10:43:00,74.0,66.0,-100.00,East,80,4.0,8.0,75,0.00,,,-99.99,,2013-07-21 15:43:00,
2013-07-21 11:01:00,75.0,68.0,-100.00,SE,125,5.0,8.0,77,0.00,,,-99.99,,2013-07-21 16:01:00,
2013-07-21 11:11:00,76.0,68.0,-100.00,SE,125,7.0,12.0,76,0.00,,,-99.99,,2013-07-21 16:11:00,
2013-07-21 11:22:00,77.0,68.0,-100.00,SE,145,9.0,13.0,74,0.00,,,-99.99,,2013-07-21 16:22:00,
2013-07-21 11:32:00,78.0,67.0,-100.00,ESE,115,7.0,12.0,68,0.00,,,-99.99,,2013-07-21 16:32:00,
2013-07-21 11:43:00,78.0,66.0,-100.00,SSE,150,8.0,12.0,66,0.00,,,-99.99,,2013-07-21 16:43:00,
2013-07-21 11:52:00,79.0,64.0,-100.00,SE,125,7.0,11.0,59,0.00,,,-99.99,,2013-07-21 16:52:00,
2013-07-21 12:02:00,80.0,64.0,-100.00,ESE,110,6.0,9.0,59,0.00,,,-99.99,,2013-07-21 17:02:00,
2013-07-21 12:11:00,80.0,64.0,-100.00,SE,145,7.0,11.0,60,0.00,,,-99.99,,2013-07-21 17:11:00,
2013-07-21 12:22:00,81.0,65.0,-100.00,SSE,150,7.0,11.0,59,0.00,,,-99.99,,2013-07-21 17:22:00,
2013-07-21 12:33:00,82.0,64.0,-100.00,SSE,155,8.0,15.0,55,0.00,,,-99.99,,2013-07-21 17:33:00,
2013-07-21 12:43:00,82.0,64.0,-100.00,SSE,155,8.0,15.0,55,0.00,,,-99.99,,2013-07-21 17:43:00,
2013-07-21 12:53:00,82.0,61.0,-100.00,SSE,155,9.0,17.0,49,0.00,,,-99.99,,2013-07-21 17:53:00,
2013-07-21 13:01:00,82.0,62.0,-100.00,SE,130,9.0,15.0,51,0.00,,,-99.99,,2013-07-21 18:01:00,
2013-07-21 13:11:00,81.0,63.0,-100.00,SSE,150,12.0,17.0,54,0.00,,,-99.99,,2013-07-21 18:11:00,
2013-07-21 13:22:00,81.0,63.0,-100.00,SSE,150,12.0,17.0,54,0.00,,,-99.99,,2013-07-21 18:22:00,
2013-07-21 13:32:00,81.0,63.0,-100.00,SE,145,12.0,17.0,54,0.00,,,-99.99,,2013-07-21 18:32:00,
2013-07-21 13:43:00,82.0,61.0,-100.00,SE,145,12.0,16.0,49,0.00,,,-99.99,,2013-07-21 18:43:00,
2013-07-21 13:52:00,80.0,59.0,-100.00,SE,145,12.0,17.0,48,0.00,,,-99.99,,2013-07-21 18:52:00,
2013-07-21 14:01:00,82.0,61.0,-100.00,SE,145,10.0,16.0,49,0.00,,,-99.99,,2013-07-21 19:01:00,
2013-07-21 14:11:00,82.0,60.0,-100.00,SE,145,13.0,18.0,47,0.00,,,-99.99,,2013-07-21 19:11:00,
2013-07-21 14:22:00,82.0,61.0,-100.00,SSE,150,11.0,20.0,49,0.00,,,-99.99,,2013-07-21 19:22:00,
2013-07-21 14:32:00,81.0,61.0,-100.00,SE,145,14.0,21.0,51,0.00,,,-99.99,,2013-07-21 19:32:00,
2013-07-21 14:42:00,80.0,59.0,-100.00,SSE,150,17.0,23.0,47,0.00,,,-99.99,,2013-07-21 19:42:00,
2013-07-21 14:52:00,80.0,59.0,-100.00,SE,135,12.0,23.0,49,0.00,,,-99.99,,2013-07-21 19:52:00,
2013-07-21 15:01:00,80.0,59.0,-100.00,SE,135,12.0,23.0,49,0.00,,,-99.99,,2013-07-21 20:01:00,
2013-07-21 15:12:00,79.0,59.0,-100.00,SE,125,11.0,21.0,49,0.00,,,-99.99,,2013-07-21 20:12:00,
2013-07-21 15:22:00,80.0,59.0,-100.00,SE,135,12.0,16.0,49,0.00,,,-99.99,,2013-07-21 20:22:00,
2013-07-21 15:32:00,80.0,59.0,-100.00,SE,145,10.0,15.0,49,0.00,,,-99.99,,2013-07-21 20:32:00,
2013-07-21 15:42:00,81.0,60.0,-100.00,SE,145,12.0,19.0,47,0.00,,,-99.99,,2013-07-21 20:42:00,
2013-07-21 16:01:00,82.0,61.0,-100.00,SE,130,10.0,19.0,48,0.00,,,-99.99,,2013-07-21 21:01:00,
2013-07-21 16:11:00,80.0,60.0,-100.00,SSE,150,13.0,22.0,49,0.00,,,-99.99,,2013-07-21 21:11:00,
2013-07-21 16:22:00,81.0,59.0,-100.00,SE,135,15.0,20.0,47,0.00,,,-99.99,,2013-07-21 21:22:00,
2013-07-21 16:32:00,81.0,59.0,-100.00,SSE,160,12.0,21.0,45,0.00,,,-99.99,,2013-07-21 21:32:00,
2013-07-21 16:43:00,81.0,59.0,-100.00,SE,145,14.0,18.0,46,0.00,,,-99.99,,2013-07-21 21:43:00,
2013-07-21 16:52:00,81.0,59.0,-100.00,SE,145,14.0,18.0,46,0.00,,,-99.99,,2013-07-21 21:52:00,
2013-07-21 17:01:00,81.0,60.0,-100.00,SE,135,12.0,17.0,50,0.00,,,-99.99,,2013-07-21 22:01:00,
2013-07-21 17:11:00,80.0,61.0,-100.00,SSE,150,14.0,21.0,52,0.00,,,-99.99,,2013-07-21 22:11:00,
2013-07-21 17:22:00,80.0,61.0,-100.00,SSE,150,14.0,21.0,52,0.00,,,-99.99,,2013-07-21 22:22:00,
2013-07-21 17:32:00,78.0,61.0,-100.00,SSE,155,9.0,16.0,55,0.00,,,-99.99,,2013-07-21 22:32:00,
2013-07-21 17:43:00,78.0,62.0,-100.00,South,170,8.0,12.0,57,0.00,,,-99.99,,2013-07-21 22:43:00,
2013-07-21 17:52:00,78.0,62.0,-100.00,South,170,8.0,12.0,57,0.00,,,-99.99,,2013-07-21 22:52:00,
2013-07-21 18:02:00,78.0,62.0,-100.00,South,175,7.0,13.0,57,0.00,,,-99.99,,2013-07-21 23:02:00,
2013-07-21 18:11:00,78.0,63.0,-100.00,South,180,7.0,12.0,60,0.00,,,-99.99,,2013-07-21 23:11:00,
2013-07-21 18:22:00,78.0,64.0,-100.00,South,180,9.0,14.0,62,0.00,,,-99.99,,2013-07-21 23:22:00,
2013-07-21 18:32:00,78.0,64.0,-100.00,SSE,165,7.0,12.0,63,0.00,,,-99.99,,2013-07-21 23:32:00,
2013-07-21 18:42:00,77.0,64.0,-100.00,SSE,155,7.0,12.0,63,0.00,,,-99.99,,2013-07-21 23:42:00,
2013-07-21 18:52:00,77.0,64.0,-100.00,South,170,7.0,12.0,64,0.00,,,-99.99,,2013-07-21 23:52:00,
2013-07-21 19:01:00,77.0,64.0,-100.00,SSE,165,7.0,11.0,63,0.00,,,-99.99,,2013-07-22 00:01:00,
2013-07-21 19:22:00,78.0,65.0,-100.00,SSE,155,5.0,9.0,64,0.00,,,-99.99,,2013-07-22 00:22:00,
2013-07-21 19:32:00,77.0,64.0,-100.00,SE,140,6.0,10.0,64,0.00,,,-99.99,,2013-07-22 00:32:00,
2013-07-21 19:42:00,77.0,64.0,-100.00,SE,135,7.0,10.0,64,0.00,,,-99.99,,2013-07-22 00:42:00,
2013-07-21 20:02:00,78.0,64.0,-100.00,SSE,160,5.0,9.0,63,0.00,,,-99.99,,2013-07-22 01:02:00,
2013-07-21 20:11:00,77.0,63.0,-100.00,SE,140,6.0,9.0,63,0.00,,,-99.99,,2013-07-22 01:11:00,
2013-07-21 20:22:00,76.0,63.0,-100.00,SSE,155,5.0,8.0,62,0.00,,,-99.99,,2013-07-22 01:22:00,
2013-07-21 20:32:00,76.0,63.0,-100.00,SSE,155,4.0,6.0,63,0.00,,,-99.99,,2013-07-22 01:32:00,
2013-07-21 20:42:00,76.0,63.0,-100.00,SE,130,4.0,6.0,63,0.00,,,-99.99,,2013-07-22 01:42:00,
2013-07-21 21:02:00,74.0,62.0,-100.00,SE,135,4.0,7.0,65,0.00,,,-99.99,,2013-07-22 02:02:00,
2013-07-21 21:11:00,74.0,62.0,-100.00,SE,130,3.0,6.0,66,0.00,,,-99.99,,2013-07-22 02:11:00,
2013-07-21 21:22:00,74.0,63.0,-100.00,ESE,110,4.0,5.0,68,0.00,,,-99.99,,2013-07-22 02:22:00,
2013-07-21 21:32:00,73.0,63.0,-100.00,ESE,110,6.0,7.0,71,0.00,,,-99.99,,2013-07-22 02:32:00,
2013-07-21 21:43:00,73.0,63.0,-100.00,ESE,110,6.0,7.0,71,0.00,,,-99.99,,2013-07-22 02:43:00,
2013-07-21 22:01:00,72.0,65.0,-100.00,ESE,115,6.0,7.0,77,0.00,,,-99.99,,2013-07-22 03:01:00,
2013-07-21 22:12:00,72.0,65.0,-100.00,ESE,115,6.0,7.0,78,0.00,,,-99.99,,2013-07-22 03:12:00,
2013-07-21 22:22:00,72.0,65.0,-100.00,ESE,115,6.0,8.0,80,0.00,,,-99.99,,2013-07-22 03:22:00,
2013-07-21 22:33:00,71.0,65.0,-100.00,ESE,110,5.0,7.0,81,0.00,,,-99.99,,2013-07-22 03:33:00,
2013-07-21 22:43:00,71.0,65.0,-100.00,ESE,105,5.0,7.0,82,0.00,,,-99.99,,2013-07-22 03:43:00,
2013-07-21 23:01:00,71.0,65.0,-100.00,SE,135,4.0,6.0,84,0.00,,,-99.99,,2013-07-22 04:01:00,
2013-07-21 23:12:00,70.0,66.0,-100.00,ESE,115,4.0,6.0,84,0.00,,,-99.99,,2013-07-22 04:12:00,
2013-07-21 23:22:00,70.0,66.0,-100.00,SE,130,5.0,6.0,85,0.00,,,-99.99,,2013-07-22 04:22:00,
2013-07-21 23:33:00,70.0,65.0,-100.00,SE,130,6.0,7.0,85,0.00,,,-99.99,,2013-07-22 04:33:00,
2013-07-21 23:43:00,70.0,66.0,-100.00,SE,140,6.0,9.0,86,0.00,,,-99.99,,2013-07-22 04:43:00,